Location: Newark
(51.0000°N, 11.4100°E)
Time: 12:30:56
(UTC+00:00)

N. Korean satellite - Pass Details

Date: 23 October 2019
Orbit: 456 x 506 km, 97.2° (Epoch: 20 November)

Event Time Altitude Azimuth Distance (km) Brightness Sun altitude
Rises 17:17:19 0° 207° (SSW) 2,471 10.6 -11.8°
Reaches altitude 10° 17:19:58 10° 231° (SW) 1,609 10.1 -12.2°
Maximum altitude 17:22:08 16° 270° (W) 1,310 10.0 -12.6°
Drops below altitude 10° 17:24:19 10° 309° (NW) 1,630 10.0 -12.9°
Sets 17:27:03 0° 332° (NNW) 2,523 10.6 -13.3°
